Date,TemperatureHighF,TemperatureAvgF,TemperatureLowF,DewpointHighF,DewpointAvgF,DewpointLowF,HumidityHigh,HumidityAvg,HumidityLow,PressureMaxIn,PressureMinIn,WindSpeedMaxMPH,WindSpeedAvgMPH,GustSpeedMaxMPH,PrecipitationSumIn
2013-8-1,92,81,72,-100,-100,-100,0,0,100,0.00,40.00,0,-999,0,0.00
2013-8-2,102,89,76,-100,-100,-100,0,0,100,0.00,40.00,0,-999,0,0.00
2013-8-3,100,89,79,-100,-100,-100,0,0,100,0.00,40.00,0,-999,0,0.00
2013-8-4,99,87,76,-100,-100,-100,0,0,100,0.00,40.00,0,-999,0,0.00
2013-8-5,101,90,77,-100,-100,-100,0,0,100,0.00,40.00,0,-999,0,0.00
2013-8-6,103,91,77,-100,-100,-100,0,0,100,0.00,40.00,0,-999,0,0.00
2013-8-7,95,85,76,-100,-100,-100,0,0,100,0.00,40.00,0,-999,0,0.00
2013-8-8,87,77,69,-100,-100,-100,0,0,100,0.00,40.00,0,-999,0,0.26
2013-8-9,83,73,67,-100,-100,-100,0,0,100,0.00,40.00,0,-999,0,0.50
2013-8-10,81,72,66,-100,-100,-100,0,0,100,0.00,40.00,0,-999,0,0.01
2013-8-11,90,77,68,-100,-100,-100,0,0,100,0.00,40.00,0,-999,0,0.20
2013-8-12,94,79,71,-100,-100,-100,0,0,100,0.00,40.00,0,-999,0,0.21
2013-8-13,83,74,67,-100,-100,-100,0,0,100,0.00,40.00,0,-999,0,0.48
2013-8-14,81,73,67,-100,-100,-100,0,0,100,0.00,40.00,0,-999,0,0.01
2013-8-15,85,75,67,-100,-100,-100,0,0,100,0.00,40.00,0,-999,0,0.00
2013-8-16,86,75,66,-100,-100,-100,0,0,100,0.00,40.00,0,-999,0,0.00
2013-8-17,82,74,66,-100,-100,-100,0,0,100,0.00,40.00,0,-999,0,0.00
2013-8-18,87,76,65,-100,-100,-100,0,0,100,0.00,40.00,0,-999,0,0.00
2013-8-19,90,78,67,-100,-100,-100,0,0,100,0.00,40.00,0,-999,0,0.00
2013-8-20,94,81,69,-100,-100,-100,0,0,100,0.00,40.00,0,-999,0,0.00
2013-8-21,93,81,68,-100,-100,-100,0,0,100,0.00,40.00,0,-999,0,0.00
2013-8-22,93,80,69,-100,-100,-100,0,0,100,0.00,40.00,0,-999,0,0.02
2013-8-23,96,83,73,-100,-100,-100,0,0,100,0.00,40.00,0,-999,0,0.02
2013-8-24,94,84,74,-100,-100,-100,0,0,100,0.00,40.00,0,-999,0,0.00
2013-8-25,94,84,74,-100,-100,-100,0,0,100,0.00,40.00,0,-999,0,0.00
2013-8-26,91,82,72,-100,-100,-100,0,0,100,0.00,40.00,0,-999,0,0.00
2013-8-27,88,78,69,-100,-100,-100,0,0,100,0.00,40.00,0,-999,0,0.00
2013-8-28,93,89,82,-100,-100,-100,0,0,100,0.00,40.00,0,-999,0,0.00
2013-8-29,96,84,72,-100,-100,-100,0,0,100,0.00,40.00,0,-999,0,0.00
2013-8-30,101,88,77,-100,-100,-100,0,0,100,0.00,40.00,0,-999,0,0.00
2013-8-31,101,89,73,-100,-100,-100,0,0,100,0.00,40.00,0,-999,0,0.00